AUA18CG LOWW-EDDM

Flight info

Callsign AUA18CG
Flight time N/A
Altitude 28000
Route SOVIL DCT SITNI DCT BAGSI DCT MATIG DCT AMADI Q113 NAPSA NAPSA1B
Aircraft A359/H-SDE2E3GHIJ3J4J5LM1ORWXY/LB1D1

Departure

Time 2026-04-25 07:42
Airport Vienna International Airport (LOWW)

Arrival

Time N/A
Airport Munich Airport (EDDM)
Time Latitude Longitude Altitude Speed Heading
2026-04-25 07:19 48.11704 16.56813 627 ft 0 kts 26°
2026-04-25 07:33 48.11695 16.56807 629 ft 4 kts 30°
2026-04-25 07:33 48.11674 16.56783 629 ft 4 kts 48°
2026-04-25 07:34 48.11659 16.56751 629 ft 4 kts 66°
2026-04-25 07:34 48.11651 16.56713 629 ft 4 kts 91°
2026-04-25 07:34 48.11654 16.56687 629 ft 0 kts 116°
2026-04-25 07:36 48.11654 16.56688 629 ft 1 kts 116°
2026-04-25 07:37 48.11653 16.56690 629 ft 0 kts 115°
2026-04-25 07:37 48.11653 16.56691 629 ft 1 kts 115°
2026-04-25 07:37 48.11633 16.56751 629 ft 12 kts 116°
2026-04-25 07:38 48.11582 16.56895 629 ft 14 kts 130°
2026-04-25 07:38 48.11507 16.56897 623 ft 12 kts 199°
2026-04-25 07:38 48.11419 16.56840 627 ft 15 kts 206°
2026-04-25 07:38 48.11362 16.56840 623 ft 6 kts 137°
2026-04-25 07:39 48.11324 16.56924 626 ft 13 kts 115°
2026-04-25 07:39 48.11273 16.57083 622 ft 20 kts 117°
2026-04-25 07:39 48.11205 16.57287 618 ft 23 kts 116°
2026-04-25 07:39 48.11140 16.57485 629 ft 16 kts 121°
2026-04-25 07:40 48.11058 16.57509 622 ft 9 kts 199°
2026-04-25 07:40 48.10992 16.57466 622 ft 10 kts 205°
2026-04-25 07:40 48.10967 16.57417 629 ft 5 kts 256°
2026-04-25 07:40 48.10974 16.57352 626 ft 8 kts 289°
2026-04-25 07:41 48.10980 16.57332 624 ft 0 kts 295°
2026-04-25 07:41 48.11017 16.57218 623 ft 39 kts 298°
2026-04-25 07:41 48.11248 16.56512 625 ft 110 kts 296°
2026-04-25 07:42 48.11669 16.55215 689 ft 161 kts 296°
2026-04-25 07:42 48.12069 16.53684 1561 ft 157 kts 284°
2026-04-25 07:42 48.11836 16.52011 2117 ft 182 kts 246°
2026-04-25 07:42 48.11183 16.50253 2564 ft 201 kts 246°
2026-04-25 07:43 48.10560 16.48367 3334 ft 204 kts 249°
2026-04-25 07:43 48.09963 16.46339 3863 ft 224 kts 251°
2026-04-25 07:43 48.09141 16.44246 4530 ft 241 kts 240°
2026-04-25 07:43 48.08127 16.42214 5385 ft 247 kts 239°
2026-04-25 07:44 48.07071 16.40127 6217 ft 255 kts 239°
2026-04-25 07:44 48.05995 16.37979 7021 ft 264 kts 239°
2026-04-25 07:44 48.04885 16.35748 7925 ft 269 kts 238°
2026-04-25 07:44 48.03871 16.33375 8818 ft 272 kts 249°
2026-04-25 07:45 48.03346 16.30657 9687 ft 273 kts 268°
2026-04-25 07:45 48.03303 16.27825 10429 ft 284 kts 275°
2026-04-25 07:45 48.03372 16.24760 10833 ft 307 kts 275°
2026-04-25 07:45 48.03451 16.21477 11352 ft 323 kts 275°
2026-04-25 07:46 48.03521 16.18058 12140 ft 331 kts 274°
2026-04-25 07:46 48.03585 16.14574 13004 ft 336 kts 274°
2026-04-25 07:46 48.03647 16.11110 13880 ft 340 kts 273°
2026-04-25 07:46 48.03707 16.07542 14685 ft 344 kts 273°
2026-04-25 07:47 48.03765 16.03936 15497 ft 348 kts 273°
2026-04-25 07:47 48.03823 16.00315 16308 ft 351 kts 273°
2026-04-25 07:47 48.03880 15.96640 17111 ft 354 kts 273°
2026-04-25 07:47 48.03935 15.93004 17901 ft 358 kts 273°
2026-04-25 07:48 48.03990 15.89272 18725 ft 359 kts 273°
2026-04-25 07:48 48.04046 15.85516 19400 ft 365 kts 273°
2026-04-25 07:48 48.04101 15.81693 20155 ft 367 kts 273°
2026-04-25 07:48 48.04155 15.77853 20918 ft 370 kts 273°